SCP
0 0 0 0 0 0 0 0 0 0 0 0 0 0 0 0 0 0 0 0 0 0 -0 0 0 0 0 0 0 0 0 0 0 0 0 0 0 0 0 0 0 0 0 0
0 0 0 0 0 0 0 0 0 0 0 0 0 0 0 0 0 0 0 0 0 0 0 0 0 0 0 0 0 0 0 0 0 0 0 0 0 0 0 0 0 0 0 0
0 0 0 0 0 0 0 0 0 0 0 0 0 0 0 0 0 0 0 0 0 0 0 0 0 0 0 0 0 0 0 0 0 0 0 0 0 0 0 0 0 0 0 0
0 0 0 0 0 0 0 0 0 0 0 0 0 0 0 0 0 0 0 0 0 0 0 0 0 0 0 0 0 0 0 0 0 0 0 0 0 0 0 0 0 0 0 0
0 0 0 0 0 0 0 0 0 0 0 0 0 0 -0 0 0 0 0 0 0 0 0 0 0 0 0 0 0 0 0 0 0 0 0 0 0 0 0 0 0 0 0 0
0 0 0 0 0 0 0 0 0 0 0 0 0 0 0 0 0 0 0 0 0 0 0 0 0 0 0 0 0 0 0 0 0 0 0 0 0 0 0 0 0 0 0 0
0 0 0 0 0 0 0 0 0 0 0 0 0 0 0 0 -0 0 0 0 0 0 0 0 0 0 0 0 0 0 0 0 0 0 0 0 0 0 0 0 0 0 0 0
0 0 0 0 0 0 0 0 0 0 0 0 0 0 0 0 0 -0 0 0 0 0 0 0 0 0 0 0 0 0 0 0 0 0 0 0 0 0 0 0 0 0 0 0
0 0 0 0 0 0 0 0 0 0 0 0 0 0 0 0 0 0 0 0 0 0 0 0 0 0 0 0 0 0 0 0 0 0 0 0 0 0 0 0 0 0 0 0
0 0 0 0 0 0 0 0 0 0 0 0 0 0 0 0 0 0 0 0 0 0 0 0 0 0 0 0 0 0 0 0 0 0 0 0 0 0 0 0 0 0 0 0
0 0 0 0 0 0 0 0 0 0 0 0 0 0 0 0 0 0 0 0 0 0 0 0 0 0 0 0 0 0 0 0 0 0 0 0 0 0 0 0 0 0 0 0
0 0 0 0 0 0 0 0 0 0 0 0 0 0 0 0 0 0 0 0 0 0 0 0 0 0 0 0 0 0 0 0 0 0 0 0 0 0 0 0 0 0 0 0
0 0 0 0 0 0 0 0 0 0 0 0 0 0 0 0 0 0 0 0 0 0 0 0 0 0 0 0 0 0 0 0 0 0 0 0 0 0 0 0 0 0 0 0
0 0 0 0 0 0 0 0 0 0 0 0 0 0 0 0 0 0 0 0 0 0 0 0 0 0 -0 -0 0 0 0 0 0 0 0 0 0 0 0 0 0 0 0 0
0 0 0 0 0 0 0 0 0 0 0 0 0 0 0 0 0 0 0 0 0 0 0 0 0 -0 -0 -0 0 0 0 0 0 0 0 0 0 0 0 0 0 0 0 0
0 0 0 0 0 0 0 0 0 0 0 0 0 0 0 0 0 0 0 0 0 0 0 -0 -0 0 0 0 0 0 0 0 0 0 0 0 0 0 0 0 0 0 0 0
0 0 0 0 0 0 0 0 0 0 0 0 0 0 0 0 0 0 0 0 0 0 0 0 0 0 0 0 0 0 0 0 0 0 0 0 0 0 0 0 0 0 0 0
0 0 0 0 0 0 0 0 0 0 0 0 0 0 0 0 0 0 0 0 0 0 0 0 0 0 0 0 0 0 0 0 0 0 0 0 0 0 0 0 0 0 0 0
0 0 0 0 0 0 0 0 0 0 0 0 0 0 0 0 0 0 0 0 0 0 0 0 0 0 0 0 0 0 0 0 0 0 0 0 0 0 0 0 0 0 0 0
0 0 0 0 0 0 0 0 0 0 0 0 0 0 0 0 0 0 0 0 0 0 0 0 0 0 0 0 0 0 0 0 0 0 0 0 0 0 0 0 0 0 0 0
0 0 0 0 0 0 0 0 0 0 0 0 0 0 0 0 0 0 0 0 0 0 0 0 0 0 0 0 0 0 0 0 0 0 0 0 0 0 0 0 0 0 0 0
0 0 0 0 0 0 0 0 0 0 0 0 0 0 0 0 0 0 0 0 0 0 0 0 0 0 0 0 0 0 0 0 0 0 0 0 0 0 0 0 0 0 0 0
0 0 0 0 0 0 0 0 0 0 0 0 0 0 0 0 0 0 0 0 0 0 0 0 0 0 0 0 0 0 0 0 0 0 0 0 0 0 0 0 0 0 0 0
0 0 0 0 0 0 0 0 0 0 0 0 0 0 0 0 0 0 0 0 0 0 0 0 0 0 0 0 0 0 0 0 0 0 0 0 0 0 0 0 0 0 0 0
0 0 0 0 0 0 0 0 0 0 0 0 0 0 0 0 0 0 0 0 0 0 0 0 0 0 0 0 0 0 0 0 0 0 0 0 0 0 0 0 0 0 0 0
0 0 0 0 0 0 0 0 0 0 0 0 0 0 0 0 0 0 0 0 0 0 0 0 0 0 0 0 0 0 0 0 0 0 0 0 0 0 0 0 0 0 0 0
Wind_Speed_500mb
11 9 13 15 14 9 11 11 9 2 6 2 12 14 16 8 15 31 42 47 52 60 52 53 52 52 51 54 57 59 58 58 56 55 54 53 57 54 53 52 50 48 47 47
9 14 10 13 12 9 6 9 8 1 1 6 3 19 20 14 20 37 48 53 59 60 60 58 56 56 56 55 57 58 61 59 59 61 58 55 55 54 57 58 58 56 54 52
16 16 19 15 11 14 6 11 9 6 3 5 4 14 13 13 33 46 47 48 56 65 67 65 59 59 55 59 59 64 61 56 56 57 57 58 58 62 57 59 60 62 60 59
11 8 20 9 11 11 9 11 9 9 9 10 3 11 12 12 16 12 55 66 70 71 70 66 67 60 53 48 50 57 60 60 58 58 65 65 58 62 55 55 50 48 51 57
14 19 18 12 17 14 12 11 14 7 7 2 2 5 12 1 12 16 47 71 76 81 79 73 69 60 55 47 43 44 50 52 55 59 64 67 65 65 63 59 56 51 44 44
9 6 16 18 7 13 20 14 14 10 6 7 6 7 10 10 16 15 28 27 34 47 62 55 58 60 55 50 47 46 53 53 51 55 59 65 66 68 70 69 68 61 55 48
5 3 2 10 15 7 10 14 4 2 3 10 2 6 14 15 21 8 7 9 8 17 29 32 31 36 38 38 41 42 46 47 47 48 50 55 59 64 70 72 72 68 62 57
19 12 17 8 14 17 14 20 12 13 7 6 6 13 12 15 22 24 30 27 12 13 21 21 22 25 26 26 25 27 32 36 37 40 43 49 53 59 65 68 67 65 61 58
14 9 4 5 7 22 11 12 14 14 5 7 9 13 20 10 15 19 20 18 16 15 20 23 22 19 16 16 15 17 21 28 34 39 45 50 54 60 66 69 64 51 50 48
14 10 3 4 8 4 19 20 8 3 9 8 7 9 12 7 5 7 9 23 21 17 16 17 15 11 9 9 11 12 16 19 22 26 27 28 28 33 38 46 50 51 43 37
10 9 5 8 13 17 8 11 5 10 10 10 3 11 12 9 9 10 18 24 21 21 19 15 11 9 8 8 8 9 10 12 15 17 18 20 21 23 26 28 30 30 30 32
6 11 9 13 6 6 5 17 12 12 10 2 5 10 1 11 11 10 21 21 19 20 18 15 12 7 5 2 3 5 9 12 15 16 18 18 18 19 16 18 20 22 26 33
14 3 8 7 7 5 10 5 13 12 6 12 10 10 7 10 4 12 27 31 33 27 19 13 8 2 1 4 6 9 12 15 17 19 19 21 19 16 11 12 14 19 23 26
25 8 14 22 18 15 9 9 10 12 4 9 13 5 8 13 11 9 15 23 26 23 18 11 6 6 6 7 10 12 14 16 17 17 18 19 22 21 18 19 20 23 25 27
14 14 9 5 7 14 12 18 21 30 45 24 33 26 17 22 21 20 17 18 20 19 11 5 4 8 12 14 15 16 17 18 17 17 17 18 19 22 18 18 20 20 23 27
4 5 8 7 8 7 7 15 30 40 30 23 5 10 10 32 30 22 27 29 20 10 1 9 16 19 19 19 19 20 20 19 19 19 19 20 20 21 16 16 19 21 22 24
14 13 8 8 4 11 8 29 23 24 16 26 24 16 11 11 24 39 34 28 14 6 12 15 20 22 23 24 23 23 22 23 21 20 21 20 21 21 17 19 21 23 23 24
14 14 7 6 4 6 14 11 31 36 30 35 3 19 30 35 52 42 28 22 13 12 12 10 13 16 18 18 18 20 24 25 24 23 22 21 20 21 21 22 23 23 23 23
6 11 6 13 9 11 12 13 16 18 37 33 39 20 30 25 29 20 29 23 18 15 10 3 6 8 9 11 11 12 18 21 23 21 21 20 21 21 23 24 24 23 23 24
8 8 12 8 14 23 17 19 26 19 37 22 43 28 28 40 15 11 43 28 24 18 10 3 4 8 12 12 11 10 12 17 18 19 20 21 22 24 25 26 25 26 26 25
8 5 25 4 9 19 10 14 43 18 23 11 46 55 59 22 36 39 44 36 27 18 12 8 5 8 11 14 13 11 12 15 19 21 22 23 25 27 29 28 29 29 30 29
15 17 11 6 4 36 18 15 31 12 6 8 17 38 50 32 36 52 46 36 26 17 10 5 6 9 10 11 12 11 10 15 19 22 23 23 27 28 30 31 32 34 33 31
8 12 12 23 13 6 40 11 26 9 13 20 29 35 51 54 48 43 37 29 20 11 7 4 3 5 8 11 12 9 10 13 18 21 23 26 29 32 34 36 39 39 37 33
6 4 7 7 7 8 44 17 30 18 23 36 42 52 51 50 39 33 25 18 10 5 3 2 5 8 9 10 11 12 14 17 21 24 28 32 34 36 38 39 40 40 37 33
6 17 12 4 5 12 22 29 41 38 44 50 49 43 39 36 30 22 18 13 7 3 1 5 8 10 12 13 16 17 18 21 25 29 33 37 37 39 40 41 42 43 40 37
12 11 19 21 34 14 26 36 43 54 49 43 44 40 33 28 28 21 16 10 5 2 8 13 16 18 19 20 20 22 24 28 30 35 39 42 41 42 45 48 53 50 48 44
Wind_Direction_500mb
163 136 181 177 167 165 161 137 165 274 8 163 210 245 251 251 259 232 230 231 233 237 240 240 239 239 240 240 239 240 242 245 247 248 252 247 242 245 248 249 252 251 253 256
85 201 193 161 163 140 133 142 185 106 26 154 134 262 257 195 241 242 238 232 235 242 241 240 239 240 241 244 245 243 243 242 244 248 253 254 256 253 251 255 254 255 256 257
157 185 154 146 161 142 146 165 179 191 96 37 350 277 239 241 227 240 245 248 248 245 246 244 242 244 246 248 248 246 245 245 245 246 249 251 252 255 253 252 253 252 256 259
160 124 145 155 175 127 147 193 137 129 126 221 117 275 250 237 238 215 240 242 245 246 245 246 247 248 245 249 252 245 244 245 243 241 245 247 251 257 264 267 274 272 261 257
193 151 151 173 181 150 196 125 142 125 126 126 226 258 256 315 254 226 233 235 240 247 248 248 249 249 248 251 247 246 246 247 247 245 247 251 253 259 264 266 269 271 272 266
153 171 163 174 91 139 149 85 54 60 79 278 246 187 260 183 207 250 237 241 252 259 253 251 250 246 243 240 240 241 240 238 241 243 245 250 255 258 262 266 268 270 273 274
87 189 183 143 95 52 101 94 21 31 327 223 301 254 256 265 253 256 170 178 253 243 229 235 242 228 226 231 236 240 240 241 243 245 246 249 253 257 262 265 267 268 269 267
161 211 169 189 170 160 178 161 156 180 209 234 40 239 247 231 265 279 265 270 273 211 197 188 193 203 215 225 232 236 237 243 249 254 258 259 262 265 263 263 265 267 268 267
149 216 56 90 144 150 188 184 148 103 31 60 221 293 296 272 268 254 240 221 213 177 155 158 169 180 199 220 235 247 250 249 250 254 256 259 262 264 267 267 263 260 260 259
184 114 30 136 103 47 184 149 143 350 142 230 265 273 238 315 26 196 190 202 189 175 167 157 161 176 203 237 251 252 254 256 259 260 262 266 270 269 267 261 264 267 255 250
137 99 179 116 218 162 127 182 83 124 157 168 182 256 220 252 260 238 215 199 189 179 170 157 159 180 196 206 220 237 250 262 268 274 274 270 267 268 270 269 268 267 257 256
161 112 128 199 254 222 177 173 162 179 208 127 139 275 307 270 259 222 161 159 163 158 154 147 148 162 170 204 248 268 274 274 279 287 288 289 286 280 271 266 264 257 254 256
176 53 90 32 326 204 201 172 175 98 77 188 145 256 330 331 42 91 121 126 133 138 143 146 143 128 317 301 307 309 308 303 298 295 296 296 293 283 259 251 256 260 260 261
136 134 158 191 223 135 163 144 145 130 190 160 221 194 208 241 190 152 128 127 130 134 137 141 163 209 244 277 293 296 297 297 296 293 289 289 293 290 270 254 256 259 260 260
151 166 146 29 170 148 164 174 174 194 221 196 234 206 205 203 194 173 170 160 155 150 161 188 271 294 292 289 283 281 279 282 286 289 289 283 280 281 266 252 254 255 251 251
21 154 117 14 35 96 153 176 188 212 219 242 55 231 215 214 195 186 177 174 184 186 211 322 322 313 303 295 288 281 279 279 281 285 283 278 277 275 265 249 245 246 247 247
126 123 98 230 37 82 330 215 199 223 216 212 213 183 195 198 204 216 206 197 202 274 306 300 294 287 286 286 278 276 271 268 267 269 270 270 271 274 263 248 241 241 240 241
142 125 98 137 56 153 249 185 196 207 223 216 223 176 186 210 218 224 204 200 216 252 261 279 291 286 287 301 289 268 256 253 255 258 263 267 267 264 262 253 246 242 238 232
344 137 111 152 199 295 267 204 154 169 246 211 219 205 198 184 186 204 193 201 204 203 200 222 316 337 322 306 300 278 258 254 256 261 264 264 263 259 252 246 240 234 230 229
62 107 156 134 168 211 259 176 169 103 266 188 199 189 170 154 186 222 197 190 183 172 161 118 5 355 344 338 329 302 272 260 265 268 268 265 258 251 246 240 238 234 228 225
117 69 196 176 218 268 241 150 148 151 262 167 201 200 176 190 213 203 178 170 162 150 135 113 61 15 358 346 336 312 272 257 254 255 257 257 256 250 244 241 236 231 227 221
153 154 191 92 184 250 159 114 176 215 158 171 175 200 181 184 154 157 157 155 149 149 133 87 23 357 351 347 340 323 286 256 252 251 254 255 252 248 242 237 231 223 217 207
194 185 184 189 209 175 181 142 192 180 173 165 164 167 171 149 146 148 148 151 151 144 109 75 357 341 340 334 332 316 275 265 261 257 254 251 245 240 235 233 227 219 211 212
253 196 166 118 193 200 177 168 178 189 177 151 145 142 150 146 148 147 147 151 153 123 90 357 315 311 300 300 312 304 290 272 264 259 253 248 244 241 234 226 218 218 220 221
167 141 163 285 90 87 187 182 178 165 161 155 147 148 149 151 146 144 143 136 121 114 356 344 336 317 318 307 300 299 283 269 262 256 252 248 244 239 232 226 222 223 225 226
190 171 190 227 177 168 179 173 163 158 154 154 155 144 140 143 140 137 135 137 144 288 308 310 306 307 302 298 293 290 284 276 267 260 254 250 244 238 232 227 225 226 224 236
Wind_Speed_850mb
11 9 13 15 14 9 11 11 9 2 6 2 12 14 16 8 15 31 42 47 52 60 52 53 52 52 51 54 57 59 58 58 56 55 54 53 57 54 53 52 50 48 47 47
9 14 10 13 12 9 6 9 8 1 1 6 3 19 20 14 20 37 48 53 59 60 60 58 56 56 56 55 57 58 61 59 59 61 58 55 55 54 57 58 58 56 54 52
16 16 19 15 11 14 6 11 9 6 3 5 4 14 13 13 33 46 47 48 56 65 67 65 59 59 55 59 59 64 61 56 56 57 57 58 58 62 57 59 60 62 60 59
11 8 20 9 11 11 9 11 9 9 9 10 3 11 12 12 16 12 55 66 70 71 70 66 67 60 53 48 50 57 60 60 58 58 65 65 58 62 55 55 50 48 51 57
14 19 18 12 17 14 12 11 14 7 7 2 2 5 12 1 12 16 47 71 76 81 79 73 69 60 55 47 43 44 50 52 55 59 64 67 65 65 63 59 56 51 44 44
9 6 16 18 7 13 20 14 14 10 6 7 6 7 10 10 16 15 28 27 34 47 62 55 58 60 55 50 47 46 53 53 51 55 59 65 66 68 70 69 68 61 55 48
5 3 2 10 15 7 10 14 4 2 3 10 2 6 14 15 21 8 7 9 8 17 29 32 31 36 38 38 41 42 46 47 47 48 50 55 59 64 70 72 72 68 62 57
19 12 17 8 14 17 14 20 12 13 7 6 6 13 12 15 22 24 30 27 12 13 21 21 22 25 26 26 25 27 32 36 37 40 43 49 53 59 65 68 67 65 61 58
14 9 4 5 7 22 11 12 14 14 5 7 9 13 20 10 15 19 20 18 16 15 20 23 22 19 16 16 15 17 21 28 34 39 45 50 54 60 66 69 64 51 50 48
14 10 3 4 8 4 19 20 8 3 9 8 7 9 12 7 5 7 9 23 21 17 16 17 15 11 9 9 11 12 16 19 22 26 27 28 28 33 38 46 50 51 43 37
10 9 5 8 13 17 8 11 5 10 10 10 3 11 12 9 9 10 18 24 21 21 19 15 11 9 8 8 8 9 10 12 15 17 18 20 21 23 26 28 30 30 30 32
6 11 9 13 6 6 5 17 12 12 10 2 5 10 1 11 11 10 21 21 19 20 18 15 12 7 5 2 3 5 9 12 15 16 18 18 18 19 16 18 20 22 26 33
14 3 8 7 7 5 10 5 13 12 6 12 10 10 7 10 4 12 27 31 33 27 19 13 8 2 1 4 6 9 12 15 17 19 19 21 19 16 11 12 14 19 23 26
25 8 14 22 18 15 9 9 10 12 4 9 13 5 8 13 11 9 15 23 26 23 18 11 6 6 6 7 10 12 14 16 17 17 18 19 22 21 18 19 20 23 25 27
14 14 9 5 7 14 12 18 21 30 45 24 33 26 17 22 21 20 17 18 20 19 11 5 4 8 12 14 15 16 17 18 17 17 17 18 19 22 18 18 20 20 23 27
4 5 8 7 8 7 7 15 30 40 30 23 5 10 10 32 30 22 27 29 20 10 1 9 16 19 19 19 19 20 20 19 19 19 19 20 20 21 16 16 19 21 22 24
14 13 8 8 4 11 8 29 23 24 16 26 24 16 11 11 24 39 34 28 14 6 12 15 20 22 23 24 23 23 22 23 21 20 21 20 21 21 17 19 21 23 23 24
14 14 7 6 4 6 14 11 31 36 30 35 3 19 30 35 52 42 28 22 13 12 12 10 13 16 18 18 18 20 24 25 24 23 22 21 20 21 21 22 23 23 23 23
6 11 6 13 9 11 12 13 16 18 37 33 39 20 30 25 29 20 29 23 18 15 10 3 6 8 9 11 11 12 18 21 23 21 21 20 21 21 23 24 24 23 23 24
8 8 12 8 14 23 17 19 26 19 37 22 43 28 28 40 15 11 43 28 24 18 10 3 4 8 12 12 11 10 12 17 18 19 20 21 22 24 25 26 25 26 26 25
8 5 25 4 9 19 10 14 43 18 23 11 46 55 59 22 36 39 44 36 27 18 12 8 5 8 11 14 13 11 12 15 19 21 22 23 25 27 29 28 29 29 30 29
15 17 11 6 4 36 18 15 31 12 6 8 17 38 50 32 36 52 46 36 26 17 10 5 6 9 10 11 12 11 10 15 19 22 23 23 27 28 30 31 32 34 33 31
8 12 12 23 13 6 40 11 26 9 13 20 29 35 51 54 48 43 37 29 20 11 7 4 3 5 8 11 12 9 10 13 18 21 23 26 29 32 34 36 39 39 37 33
6 4 7 7 7 8 44 17 30 18 23 36 42 52 51 50 39 33 25 18 10 5 3 2 5 8 9 10 11 12 14 17 21 24 28 32 34 36 38 39 40 40 37 33
6 17 12 4 5 12 22 29 41 38 44 50 49 43 39 36 30 22 18 13 7 3 1 5 8 10 12 13 16 17 18 21 25 29 33 37 37 39 40 41 42 43 40 37
12 11 19 21 34 14 26 36 43 54 49 43 44 40 33 28 28 21 16 10 5 2 8 13 16 18 19 20 20 22 24 28 30 35 39 42 41 42 45 48 53 50 48 44
Wind_Direction_850mb
163 136 181 177 167 165 161 137 165 274 8 163 210 245 251 251 259 232 230 231 233 237 240 240 239 239 240 240 239 240 242 245 247 248 252 247 242 245 248 249 252 251 253 256
85 201 193 161 163 140 133 142 185 106 26 154 134 262 257 195 241 242 238 232 235 242 241 240 239 240 241 244 245 243 243 242 244 248 253 254 256 253 251 255 254 255 256 257
157 185 154 146 161 142 146 165 179 191 96 37 350 277 239 241 227 240 245 248 248 245 246 244 242 244 246 248 248 246 245 245 245 246 249 251 252 255 253 252 253 252 256 259
160 124 145 155 175 127 147 193 137 129 126 221 117 275 250 237 238 215 240 242 245 246 245 246 247 248 245 249 252 245 244 245 243 241 245 247 251 257 264 267 274 272 261 257
193 151 151 173 181 150 196 125 142 125 126 126 226 258 256 315 254 226 233 235 240 247 248 248 249 249 248 251 247 246 246 247 247 245 247 251 253 259 264 266 269 271 272 266
153 171 163 174 91 139 149 85 54 60 79 278 246 187 260 183 207 250 237 241 252 259 253 251 250 246 243 240 240 241 240 238 241 243 245 250 255 258 262 266 268 270 273 274
87 189 183 143 95 52 101 94 21 31 327 223 301 254 256 265 253 256 170 178 253 243 229 235 242 228 226 231 236 240 240 241 243 245 246 249 253 257 262 265 267 268 269 267
161 211 169 189 170 160 178 161 156 180 209 234 40 239 247 231 265 279 265 270 273 211 197 188 193 203 215 225 232 236 237 243 249 254 258 259 262 265 263 263 265 267 268 267
149 216 56 90 144 150 188 184 148 103 31 60 221 293 296 272 268 254 240 221 213 177 155 158 169 180 199 220 235 247 250 249 250 254 256 259 262 264 267 267 263 260 260 259
184 114 30 136 103 47 184 149 143 350 142 230 265 273 238 315 26 196 190 202 189 175 167 157 161 176 203 237 251 252 254 256 259 260 262 266 270 269 267 261 264 267 255 250
137 99 179 116 218 162 127 182 83 124 157 168 182 256 220 252 260 238 215 199 189 179 170 157 159 180 196 206 220 237 250 262 268 274 274 270 267 268 270 269 268 267 257 256
161 112 128 199 254 222 177 173 162 179 208 127 139 275 307 270 259 222 161 159 163 158 154 147 148 162 170 204 248 268 274 274 279 287 288 289 286 280 271 266 264 257 254 256
176 53 90 32 326 204 201 172 175 98 77 188 145 256 330 331 42 91 121 126 133 138 143 146 143 128 317 301 307 309 308 303 298 295 296 296 293 283 259 251 256 260 260 261
136 134 158 191 223 135 163 144 145 130 190 160 221 194 208 241 190 152 128 127 130 134 137 141 163 209 244 277 293 296 297 297 296 293 289 289 293 290 270 254 256 259 260 260
151 166 146 29 170 148 164 174 174 194 221 196 234 206 205 203 194 173 170 160 155 150 161 188 271 294 292 289 283 281 279 282 286 289 289 283 280 281 266 252 254 255 251 251
21 154 117 14 35 96 153 176 188 212 219 242 55 231 215 214 195 186 177 174 184 186 211 322 322 313 303 295 288 281 279 279 281 285 283 278 277 275 265 249 245 246 247 247
126 123 98 230 37 82 330 215 199 223 216 212 213 183 195 198 204 216 206 197 202 274 306 300 294 287 286 286 278 276 271 268 267 269 270 270 271 274 263 248 241 241 240 241
142 125 98 137 56 153 249 185 196 207 223 216 223 176 186 210 218 224 204 200 216 252 261 279 291 286 287 301 289 268 256 253 255 258 263 267 267 264 262 253 246 242 238 232
344 137 111 152 199 295 267 204 154 169 246 211 219 205 198 184 186 204 193 201 204 203 200 222 316 337 322 306 300 278 258 254 256 261 264 264 263 259 252 246 240 234 230 229
62 107 156 134 168 211 259 176 169 103 266 188 199 189 170 154 186 222 197 190 183 172 161 118 5 355 344 338 329 302 272 260 265 268 268 265 258 251 246 240 238 234 228 225
117 69 196 176 218 268 241 150 148 151 262 167 201 200 176 190 213 203 178 170 162 150 135 113 61 15 358 346 336 312 272 257 254 255 257 257 256 250 244 241 236 231 227 221
153 154 191 92 184 250 159 114 176 215 158 171 175 200 181 184 154 157 157 155 149 149 133 87 23 357 351 347 340 323 286 256 252 251 254 255 252 248 242 237 231 223 217 207
194 185 184 189 209 175 181 142 192 180 173 165 164 167 171 149 146 148 148 151 151 144 109 75 357 341 340 334 332 316 275 265 261 257 254 251 245 240 235 233 227 219 211 212
253 196 166 118 193 200 177 168 178 189 177 151 145 142 150 146 148 147 147 151 153 123 90 357 315 311 300 300 312 304 290 272 264 259 253 248 244 241 234 226 218 218 220 221
167 141 163 285 90 87 187 182 178 165 161 155 147 148 149 151 146 144 143 136 121 114 356 344 336 317 318 307 300 299 283 269 262 256 252 248 244 239 232 226 222 223 225 226
190 171 190 227 177 168 179 173 163 158 154 154 155 144 140 143 140 137 135 137 144 288 308 310 306 307 302 298 293 290 284 276 267 260 254 250 244 238 232 227 225 226 224 236